Tracking 20942 objects as of 9-Jul-2020
HD Live streaming from Space Station
objects crossing your sky now

COSMOS 2251 DEB

Track COSMOS 2251 DEB now!
10-day predictions


NORAD ID: 35464
Int'l Code: 1993-036ALJ
Perigee: 650.4 km
Apogee: 717.0 km
Inclination: 74.0 °
Period: 98.3 minutes
Semi major axis: 7054 km
RCS: 0.0073 m2 (small)
Launch date: June 16, 1993
Source: Commonwealth of Independent States (former USSR) (CIS)
Launch site: PLESETSK MISSILE AND SPACE COMPLEX (PKMTR)

Note: This is SATELLITE DEBRIS
aabbcc
Your satellite tracking list
Your tracking list is empty




NASA's NSSDC Master Catalog

Two Line Element Set (TLE):
1 35464U 93036ALJ 20191.20066035 +.00000561 +00000-0 +10866-3 0  9994
2 35464 074.0154 023.1261 0047214 298.5104 179.3372 14.65168288283696
Source of the keplerian elements: AFSPC